Wetbulb
68.82 72.28 74.19 73.89 73.41 73.40 73.23 72.85 72.08 71.29 70.78 70.21 69.43 69.15 68.78 68.55 68.40 68.22 68.10 68.00 68.23 68.52 68.56 68.49 68.10 68.88 69.55 69.42 70.27 70.07 69.40 69.92 70.10 69.75 70.08 70.55 70.50 70.84 70.87 70.95 71.61 69.97 71.39
69.94 72.05 73.86 74.05 73.88 73.33 72.87 71.65 70.64 70.59 69.98 69.15 68.80 68.47 68.17 67.99 67.86 67.63 67.51 67.88 68.31 68.33 68.37 68.27 68.25 67.65 67.69 68.05 68.75 69.22 69.10 69.17 68.98 68.90 70.01 69.79 70.18 70.06 69.95 70.20 71.09 70.34 70.78
70.36 71.81 73.15 73.54 73.49 72.96 71.44 70.26 69.63 69.38 69.03 68.50 68.15 67.92 67.76 67.60 67.27 67.14 67.25 67.82 67.78 68.10 67.97 68.11 67.50 67.00 66.66 67.01 67.35 68.39 68.41 68.05 68.02 68.91 69.21 68.81 69.06 70.24 70.42 70.13 70.63 70.41 70.65
70.95 72.26 72.09 73.26 73.09 71.79 70.41 69.81 69.21 68.71 68.40 67.98 67.86 67.62 67.05 66.94 66.46 66.56 66.70 66.85 67.21 67.14 67.33 67.39 66.88 66.36 65.89 66.69 66.90 67.47 67.54 67.50 68.36 68.84 66.84 66.78 67.52 69.43 69.43 69.63 69.85 70.23 70.37
70.61 70.35 71.80 72.83 72.40 70.93 70.12 69.22 68.57 68.35 67.92 67.69 67.27 67.49 66.48 66.55 66.71 66.11 66.56 66.17 66.23 66.19 66.80 66.76 66.39 65.91 65.34 66.58 66.66 66.65 66.91 67.13 67.66 66.71 65.55 66.27 65.77 67.25 68.47 68.13 67.91 68.59 68.94
70.22 71.52 71.89 71.94 71.69 70.93 70.06 68.69 68.21 67.99 67.75 67.10 67.25 66.07 66.01 66.16 66.09 66.01 65.47 65.50 65.30 65.79 66.08 66.04 65.70 64.90 65.12 66.25 66.34 66.27 66.02 66.65 66.93 65.90 66.20 66.34 65.19 67.84 68.40 68.02 67.47 68.10 68.41
70.28 71.25 71.15 71.59 71.01 70.21 69.34 68.97 68.71 67.70 67.16 66.89 66.43 66.27 65.81 65.89 65.76 65.37 65.56 64.85 64.98 65.58 65.61 65.65 65.11 64.69 65.65 66.04 65.88 66.01 66.27 66.93 65.62 65.11 64.74 66.69 66.70 68.74 69.08 68.71 68.12 68.16 68.23
70.02 70.64 69.56 69.23 69.55 69.40 69.00 68.77 67.33 67.43 66.63 66.41 65.91 65.26 65.77 65.74 65.36 65.22 64.82 64.67 65.08 65.19 65.34 65.13 64.77 65.15 65.79 65.72 65.46 65.13 66.27 65.39 63.87 63.01 63.61 64.87 66.94 67.60 67.67 67.58 67.07 66.66 67.15
69.52 69.02 67.92 67.62 67.93 67.93 67.96 66.78 66.25 66.04 67.33 66.49 65.50 65.44 65.63 65.01 64.86 64.51 64.13 64.50 64.92 64.87 64.75 64.55 64.66 65.18 65.40 64.84 64.62 65.08 65.33 64.48 62.73 62.41 61.87 63.12 65.58 65.99 65.86 65.55 65.13 64.91 66.23
68.06 67.65 67.11 66.98 66.61 66.42 65.96 65.81 66.23 66.57 66.45 66.07 65.74 65.04 63.83 64.44 64.18 63.56 64.04 64.58 64.35 64.26 64.19 64.17 64.31 64.74 64.42 63.79 63.64 63.86 63.71 63.82 62.76 61.64 61.79 62.87 64.26 64.39 63.96 63.78 64.17 64.29 63.89
66.24 66.60 67.29 65.90 65.75 65.38 64.80 64.57 65.70 65.46 65.21 64.68 63.93 62.92 62.63 62.02 60.74 61.55 62.83 63.62 63.20 62.99 63.52 63.77 63.43 63.17 62.15 62.07 62.46 62.59 63.03 62.01 61.30 61.36 61.52 63.80 63.18 63.40 63.01 62.56 62.48 62.26 62.00
64.47 65.26 65.64 65.38 64.94 64.52 63.84 63.78 64.03 63.68 63.61 63.21 62.80 62.28 61.67 61.05 60.30 60.20 60.26 61.69 61.15 60.92 61.33 61.35 61.16 62.25 61.33 59.00 59.70 61.86 60.69 60.64 60.63 60.57 60.83 63.11 62.55 62.40 62.03 61.52 61.44 61.02 60.81
64.50 64.23 64.76 64.60 64.73 63.83 62.93 63.28 62.98 63.81 63.15 62.47 62.02 61.42 60.76 59.32 58.69 58.75 57.70 56.81 57.34 58.69 57.72 57.93 58.08 58.21 58.00 58.21 58.68 58.80 58.95 59.10 59.00 58.61 59.00 60.67 60.94 61.33 60.87 60.22 59.79 59.70 59.49
63.93 63.83 65.03 64.58 63.97 63.49 63.86 64.02 62.70 62.43 61.74 60.35 60.06 59.57 58.63 56.68 55.33 55.23 55.43 55.29 55.23 56.17 56.19 57.51 57.15 56.88 56.90 57.55 57.24 57.18 57.51 57.45 57.27 56.16 55.14 57.21 58.02 58.78 58.73 58.37 58.10 58.24 58.53
63.01 63.26 63.70 64.26 63.45 63.29 62.80 62.89 62.33 60.54 59.67 59.37 59.01 57.76 56.63 54.81 53.68 54.20 54.13 53.78 53.14 54.05 55.05 55.32 55.21 55.01 55.57 55.62 55.11 54.72 54.68 54.92 55.15 53.87 51.95 53.22 53.99 55.08 56.07 56.52 56.99 57.32 57.49
63.11 62.43 63.19 63.15 63.63 62.77 62.00 61.39 60.27 59.40 59.27 58.40 57.43 56.56 56.02 55.23 53.70 53.05 52.20 51.64 51.16 52.19 54.44 54.91 54.27 53.69 53.36 53.37 52.73 52.69 52.02 51.73 51.33 50.74 50.12 49.94 51.63 52.16 52.99 54.31 55.07 55.36 55.79
62.71 63.21 62.31 62.72 63.04 61.88 61.09 60.36 59.79 59.65 58.70 57.34 56.35 55.76 55.47 55.07 53.39 52.23 50.70 50.13 50.07 50.23 50.88 52.92 52.65 52.80 52.37 51.77 50.89 50.88 50.61 49.80 49.16 48.00 47.69 47.48 48.90 49.49 49.71 51.31 52.12 52.80 53.46
61.73 62.44 62.37 62.55 62.29 61.18 60.42 60.13 59.59 59.54 58.35 56.81 55.46 55.01 54.59 54.19 52.88 51.38 50.69 49.83 49.34 49.40 49.77 50.05 51.57 51.21 50.66 50.28 48.98 49.12 48.74 48.12 46.43 46.12 46.77 46.53 46.86 46.73 48.22 47.68 48.56 49.83 50.72
61.44 61.39 61.53 61.34 61.52 60.70 60.06 59.57 59.22 58.71 58.08 56.30 54.95 54.30 53.67 53.24 52.20 50.96 50.21 50.04 49.21 49.58 49.11 48.93 49.30 50.22 49.60 48.71 48.20 48.12 47.83 46.83 46.16 45.50 44.88 45.11 45.62 46.03 46.34 47.07 45.81 46.53 47.69
61.44 61.48 62.88 60.66 61.68 60.01 59.72 59.24 59.30 58.77 57.72 55.99 54.33 53.66 52.90 52.15 51.45 51.15 50.15 49.43 49.15 49.03 48.49 48.87 48.09 49.63 49.70 48.39 46.57 46.24 46.89 46.70 46.97 46.13 44.89 44.51 44.78 45.26 44.94 45.69 45.58 45.27 45.95
60.81 60.78 60.52 59.69 60.89 59.00 58.42 57.53 57.47 56.95 56.45 54.80 53.85 53.12 52.29 51.63 50.85 50.70 49.85 49.08 49.26 48.66 48.52 47.65 47.53 47.18 47.17 49.06 47.63 46.67 46.33 46.82 46.49 45.82 45.72 44.74 44.46 44.56 44.25 44.29 44.16 43.90 44.14
59.25 59.39 59.65 59.13 59.11 58.13 58.66 58.20 58.20 57.56 55.69 54.56 52.87 52.36 52.27 51.49 51.36 49.74 49.17 48.72 48.82 47.89 48.00 48.00 47.71 45.35 45.33 46.87 46.69 47.75 43.62 44.39 46.52 45.35 45.01 43.86 43.15 44.17 43.57 43.53 43.16 43.09 43.32
57.94 58.46 58.72 58.71 56.43 57.72 57.91 57.84 57.36 55.64 54.69 51.88 50.79 50.49 51.08 51.22 51.12 50.01 49.22 48.26 48.31 48.31 47.15 47.78 48.47 47.88 43.70 44.62 45.20 43.61 43.92 41.74 42.58 44.46 44.34 43.30 43.01 43.13 43.17 43.21 43.05 42.93 42.56
57.62 58.81 58.97 57.93 55.50 55.98 56.30 56.17 54.10 51.71 48.91 49.70 49.33 49.94 49.99 50.63 49.93 49.17 48.64 48.12 47.85 47.28 46.63 46.05 46.49 47.22 46.67 42.78 44.14 42.85 42.72 41.67 39.41 39.98 42.48 43.08 43.50 42.23 42.38 42.32 42.27 42.47 42.21
57.09 58.10 58.42 56.08 55.13 54.95 55.94 55.34 52.50 51.07 51.38 49.81 49.24 48.75 49.01 49.55 48.84 47.54 47.43 46.81 46.47 45.96 45.55 45.05 45.08 44.78 45.07 43.08 42.83 42.60 41.52 41.61 41.26 39.22 37.30 39.97 41.61 42.35 42.04 41.81 41.82 41.62 41.85
56.43 57.41 56.75 54.87 54.09 54.64 52.61 53.12 53.99 52.22 49.99 48.14 48.06 47.49 47.75 47.78 46.51 46.30 46.24 45.90 45.51 44.88 44.52 44.39 44.24 43.71 42.60 42.21 41.82 41.02 39.97 38.85 37.81 37.68 36.65 37.20 37.21 40.46 41.51 42.25 42.05 41.24 41.60
MSLP
1008.61 1010.20 1011.40 1011.97 1012.49 1012.89 1013.29 1013.67 1013.98 1014.28 1014.56 1014.78 1015.08 1015.35 1015.53 1015.68 1015.85 1016.03 1016.18 1016.25 1016.20 1016.20 1016.27 1016.35 1016.45 1016.40 1016.47 1016.62 1016.64 1016.67 1016.73 1016.76 1016.83 1016.89 1016.84 1016.72 1016.71 1016.52 1016.45 1016.24 1015.93 1016.28 1016.63
1008.49 1010.15 1011.35 1011.99 1012.50 1013.00 1013.45 1013.82 1014.28 1014.53 1014.76 1015.16 1015.44 1015.59 1015.78 1015.92 1016.12 1016.30 1016.42 1016.40 1016.36 1016.46 1016.57 1016.69 1016.84 1016.98 1017.07 1017.13 1017.17 1017.22 1017.24 1017.28 1017.17 1017.14 1017.02 1017.00 1016.98 1016.93 1016.98 1017.03 1016.94 1017.01 1017.06
1008.66 1010.06 1011.22 1012.07 1012.63 1013.20 1013.68 1014.10 1014.50 1014.82 1015.11 1015.40 1015.70 1015.85 1016.04 1016.18 1016.39 1016.60 1016.65 1016.69 1016.73 1016.86 1016.98 1017.11 1017.35 1017.55 1017.65 1017.65 1017.71 1017.68 1017.62 1017.45 1017.22 1017.24 1017.15 1017.29 1017.38 1017.44 1017.41 1017.42 1017.47 1017.44 1017.41
1008.69 1010.14 1010.98 1012.15 1012.80 1013.37 1014.01 1014.41 1014.75 1015.10 1015.38 1015.67 1015.94 1016.12 1016.36 1016.57 1016.78 1016.96 1017.07 1017.20 1017.31 1017.41 1017.47 1017.59 1017.79 1017.98 1018.05 1018.05 1018.03 1018.02 1017.91 1017.68 1017.38 1017.15 1017.62 1017.90 1017.91 1018.02 1017.92 1017.92 1017.92 1017.90 1017.74
1008.95 1010.12 1011.17 1012.29 1012.86 1013.54 1014.16 1014.61 1015.06 1015.35 1015.63 1015.98 1016.24 1016.52 1016.75 1016.97 1017.21 1017.35 1017.51 1017.70 1017.83 1017.92 1017.89 1018.04 1018.27 1018.41 1018.46 1018.50 1018.49 1018.33 1018.21 1018.00 1017.72 1017.53 1018.40 1018.59 1018.57 1018.56 1018.52 1018.47 1018.48 1018.47 1018.44
1009.58 1010.52 1011.80 1012.51 1013.02 1013.71 1014.23 1014.89 1015.27 1015.60 1015.93 1016.24 1016.63 1016.92 1017.17 1017.35 1017.56 1017.80 1017.96 1018.22 1018.32 1018.32 1018.36 1018.50 1018.72 1018.88 1018.93 1018.88 1018.86 1018.75 1018.55 1018.27 1017.94 1018.08 1018.51 1018.96 1019.01 1018.99 1019.02 1019.00 1018.96 1018.93 1018.84
1009.98 1010.86 1012.11 1012.78 1013.27 1013.89 1014.46 1015.10 1015.53 1015.81 1016.20 1016.65 1017.05 1017.36 1017.51 1017.81 1017.95 1018.22 1018.46 1018.60 1018.70 1018.71 1018.81 1018.96 1019.16 1019.27 1019.35 1019.38 1019.26 1019.08 1018.81 1018.55 1019.12 1019.38 1019.65 1019.68 1019.62 1019.66 1019.54 1019.56 1019.53 1019.50 1019.36
1010.32 1010.93 1012.09 1013.05 1013.53 1014.20 1014.73 1015.23 1015.70 1016.05 1016.39 1016.93 1017.34 1017.62 1017.91 1018.21 1018.40 1018.68 1018.88 1018.97 1019.04 1019.13 1019.25 1019.48 1019.65 1019.67 1019.81 1019.93 1019.77 1019.54 1019.22 1019.06 1019.39 1019.89 1020.13 1020.24 1020.25 1020.26 1020.25 1020.23 1020.20 1020.21 1020.05
1010.65 1011.37 1012.16 1012.94 1013.75 1014.54 1015.03 1015.38 1015.86 1016.30 1016.69 1017.19 1017.62 1017.97 1018.32 1018.59 1018.83 1019.09 1019.27 1019.37 1019.42 1019.57 1019.74 1019.91 1020.06 1020.11 1020.28 1020.32 1020.14 1019.81 1019.60 1019.65 1020.11 1020.70 1020.79 1020.94 1020.86 1020.91 1021.00 1020.99 1020.87 1020.83 1020.74
1011.11 1011.83 1012.19 1012.80 1013.63 1014.40 1015.22 1015.72 1016.10 1016.63 1017.07 1017.38 1017.98 1018.38 1018.74 1019.06 1019.32 1019.58 1019.69 1019.78 1019.96 1020.11 1020.24 1020.33 1020.46 1020.64 1020.79 1020.77 1020.64 1020.40 1020.21 1020.12 1020.55 1021.22 1021.40 1021.60 1021.54 1021.61 1021.69 1021.62 1021.50 1021.43 1021.40
1011.38 1011.82 1011.77 1012.41 1013.20 1013.98 1014.88 1016.04 1016.59 1016.99 1017.51 1017.77 1018.28 1018.73 1018.99 1019.14 1019.46 1019.71 1020.15 1020.33 1020.54 1020.74 1020.83 1020.85 1020.98 1021.16 1021.26 1021.25 1021.08 1020.75 1020.39 1020.54 1021.10 1021.61 1022.08 1022.20 1022.18 1022.23 1022.31 1022.31 1022.21 1022.18 1022.15
1011.10 1011.19 1011.63 1012.22 1012.81 1013.66 1014.90 1016.13 1016.82 1017.34 1017.55 1017.81 1018.16 1018.59 1018.53 1018.91 1019.52 1020.17 1020.81 1020.90 1021.01 1021.22 1021.38 1021.31 1021.25 1021.33 1021.10 1021.27 1021.36 1021.16 1021.18 1021.45 1021.97 1022.57 1022.96 1022.81 1022.76 1022.88 1022.91 1022.88 1022.82 1022.76 1022.73
1010.80 1011.08 1011.48 1012.23 1012.70 1013.50 1015.09 1015.88 1016.76 1016.89 1017.09 1017.72 1018.12 1018.14 1018.56 1019.51 1020.12 1020.58 1021.16 1021.34 1021.37 1021.32 1021.39 1021.40 1021.30 1021.13 1021.26 1021.41 1021.60 1021.75 1021.90 1022.24 1022.92 1023.73 1024.01 1023.77 1023.58 1023.54 1023.58 1023.53 1023.45 1023.34 1023.27
1010.94 1011.24 1011.56 1012.15 1012.87 1013.66 1014.52 1014.94 1016.18 1016.24 1017.00 1017.48 1017.96 1018.17 1018.84 1019.37 1019.90 1020.31 1020.61 1021.06 1021.16 1021.25 1021.46 1021.70 1021.90 1021.92 1021.89 1021.89 1022.11 1022.36 1022.63 1022.95 1023.58 1024.46 1025.01 1024.80 1024.56 1024.40 1024.24 1024.13 1024.04 1023.86 1023.78
1010.86 1011.27 1011.68 1012.22 1012.88 1013.51 1014.14 1014.53 1015.26 1016.11 1016.94 1017.45 1017.91 1018.41 1018.76 1019.28 1019.68 1020.15 1020.60 1021.01 1021.33 1021.38 1021.57 1021.89 1022.25 1022.50 1022.58 1022.65 1022.77 1022.91 1023.20 1023.58 1024.16 1025.02 1025.68 1025.61 1025.38 1025.17 1024.96 1024.75 1024.52 1024.41 1024.31
1010.76 1011.23 1011.71 1012.34 1012.74 1013.42 1014.17 1014.70 1015.45 1016.12 1016.63 1017.50 1018.13 1018.50 1018.81 1019.16 1019.69 1020.16 1020.62 1021.09 1021.46 1021.63 1021.76 1021.93 1022.28 1022.73 1023.07 1023.35 1023.56 1023.67 1023.88 1024.22 1024.57 1024.96 1025.46 1026.02 1026.04 1025.94 1025.72 1025.51 1025.29 1025.06 1024.80
1010.49 1010.98 1011.48 1012.19 1012.69 1013.34 1014.05 1014.77 1015.31 1016.10 1016.58 1017.47 1018.10 1018.65 1018.89 1019.36 1019.86 1020.31 1020.63 1021.18 1021.64 1021.86 1022.11 1022.25 1022.49 1022.84 1023.29 1023.65 1024.04 1024.29 1024.58 1024.90 1025.14 1025.39 1025.67 1025.84 1025.97 1026.41 1026.46 1026.31 1026.08 1025.82 1025.52
1010.24 1010.73 1011.62 1011.89 1012.66 1013.27 1013.77 1014.65 1015.10 1015.66 1016.54 1017.36 1017.94 1018.62 1019.12 1019.51 1019.99 1020.45 1020.81 1021.18 1021.64 1021.97 1022.19 1022.42 1022.62 1022.92 1023.34 1023.78 1024.16 1024.52 1024.77 1025.10 1025.46 1025.81 1026.09 1026.21 1026.35 1026.27 1026.47 1026.72 1026.74 1026.54 1026.26
1010.07 1010.82 1011.27 1011.66 1012.30 1013.10 1013.67 1014.25 1015.08 1015.62 1016.22 1017.09 1017.88 1018.52 1019.13 1019.66 1020.07 1020.51 1020.92 1021.31 1021.61 1022.02 1022.32 1022.44 1022.67 1022.97 1023.39 1023.91 1024.34 1024.76 1025.02 1025.41 1025.63 1025.84 1026.17 1026.39 1026.59 1026.64 1026.63 1026.63 1026.69 1026.79 1026.77
1009.83 1010.56 1011.06 1011.26 1011.93 1012.60 1013.38 1014.10 1014.95 1015.56 1016.00 1016.81 1017.71 1018.43 1019.15 1019.74 1020.12 1020.61 1021.06 1021.29 1021.73 1022.17 1022.47 1022.81 1022.98 1023.15 1023.56 1024.08 1024.46 1025.02 1025.40 1025.67 1025.85 1026.01 1026.22 1026.47 1026.65 1026.72 1026.79 1026.78 1026.69 1026.64 1026.77
1009.29 1009.94 1010.51 1010.97 1011.95 1012.08 1012.75 1013.54 1014.46 1015.27 1015.98 1016.67 1017.45 1018.44 1019.13 1019.71 1020.28 1020.75 1021.16 1021.45 1021.77 1022.20 1022.55 1022.95 1023.47 1023.87 1024.28 1024.46 1024.82 1025.23 1025.56 1025.78 1025.93 1026.16 1026.29 1026.44 1026.64 1026.71 1026.83 1026.85 1026.73 1026.80 1026.79
1008.85 1009.50 1010.38 1011.06 1011.71 1012.41 1012.81 1013.26 1014.08 1015.05 1016.18 1016.74 1017.40 1018.48 1019.12 1019.75 1020.40 1020.88 1021.30 1021.65 1022.00 1022.56 1022.98 1023.27 1023.76 1024.34 1024.85 1025.00 1024.64 1024.66 1025.10 1025.70 1025.73 1026.08 1026.41 1026.47 1026.67 1026.74 1026.90 1026.92 1026.92 1026.97 1027.02
1008.08 1008.91 1009.78 1010.64 1010.70 1012.27 1013.05 1013.65 1014.24 1015.37 1016.52 1017.24 1017.77 1018.56 1019.36 1019.92 1020.46 1020.97 1021.48 1021.91 1022.33 1022.74 1023.28 1023.60 1023.87 1024.14 1024.83 1025.38 1025.30 1025.10 1025.04 1025.25 1025.59 1026.12 1026.37 1026.59 1026.77 1026.77 1027.09 1027.05 1026.88 1027.02 1027.15
1007.50 1008.64 1009.51 1010.70 1010.75 1012.22 1013.30 1013.71 1013.92 1014.65 1016.15 1017.62 1017.89 1018.52 1019.42 1020.22 1020.71 1021.25 1021.81 1022.26 1022.69 1023.19 1023.65 1023.96 1024.23 1024.50 1024.83 1025.37 1025.76 1025.87 1026.00 1026.12 1026.06 1025.94 1026.23 1026.52 1026.61 1026.77 1027.15 1027.21 1027.08 1027.10 1027.28
1006.99 1007.66 1008.81 1010.17 1011.18 1012.17 1013.20 1013.98 1013.92 1014.74 1015.89 1017.42 1018.28 1018.85 1019.51 1020.36 1021.12 1021.61 1022.02 1022.63 1023.02 1023.52 1023.99 1024.38 1024.67 1024.91 1025.21 1025.64 1026.00 1026.30 1026.56 1026.71 1026.81 1026.79 1026.56 1026.48 1026.74 1026.83 1027.23 1027.34 1027.31 1027.34 1027.44
1006.01 1007.09 1007.85 1009.31 1010.81 1011.56 1011.93 1014.36 1014.30 1014.33 1015.57 1016.90 1018.08 1018.77 1019.63 1020.58 1021.41 1021.93 1022.32 1022.84 1023.38 1023.94 1024.38 1024.76 1025.12 1025.42 1025.76 1026.09 1026.40 1026.58 1026.84 1027.01 1027.24 1027.32 1027.20 1027.15 1027.04 1026.87 1027.07 1027.25 1027.31 1027.58 1027.61
Wind_Speed
16 20 18 18 18 17 17 17 17 16 16 16 13 13 14 14 14 14 13 13 13 14 15 15 14 14 14 14 15 15 14 12 10 10 12 13 13 15 15 19 14 15 15
20 22 18 17 18 18 19 18 16 15 15 14 14 14 14 14 14 14 13 13 15 16 16 16 17 16 15 15 14 13 14 11 8 6 6 15 13 14 15 16 17 14 14
21 21 19 19 19 20 19 18 17 16 15 14 13 14 14 14 14 14 14 14 15 16 16 18 17 17 16 15 14 14 12 10 7 6 18 12 14 18 17 16 14 15 16
20 20 19 18 20 21 19 18 17 16 15 14 14 14 13 14 13 14 14 15 15 16 15 18 17 17 16 16 16 14 12 8 7 6 13 11 12 19 18 17 18 19 17
20 17 19 21 22 21 19 18 17 16 16 15 14 15 13 14 14 13 14 15 15 14 15 17 16 16 16 16 16 15 11 5 4 16 13 11 7 14 17 16 16 17 17
18 15 22 21 21 19 19 18 17 17 17 15 15 14 13 14 14 14 14 14 14 14 15 16 16 16 16 17 14 10 7 6 11 13 12 12 11 17 18 18 17 18 18
15 18 20 20 21 20 19 17 17 17 17 16 15 14 14 13 14 14 14 14 14 15 15 16 16 16 17 16 12 11 12 17 15 13 12 14 15 23 23 23 22 23 21
17 20 19 19 20 19 18 17 17 16 17 16 15 14 14 13 14 14 14 14 14 15 16 17 16 17 18 15 12 11 10 15 15 14 13 12 18 23 23 24 23 23 22
15 18 16 16 18 17 17 17 17 17 17 16 15 14 14 13 13 14 13 14 15 16 16 17 17 18 17 15 13 12 14 22 16 11 12 9 19 22 23 22 22 21 23
14 15 15 17 17 17 15 14 14 16 16 15 15 14 14 12 13 13 11 13 15 15 16 17 18 18 17 13 11 10 7 13 16 12 10 10 21 21 22 21 21 23 22
13 15 16 17 17 16 15 11 14 17 16 17 15 15 12 10 11 10 13 13 15 15 15 17 17 17 16 10 8 9 10 8 12 9 8 15 20 20 20 20 20 20 21
15 16 14 16 17 17 13 12 10 12 10 11 12 13 9 10 9 12 11 13 15 15 14 14 12 12 11 8 5 2 7 11 10 10 8 16 19 19 19 19 19 20 19
14 11 14 14 16 17 14 10 6 7 8 8 13 10 10 9 9 7 6 6 7 9 7 7 5 5 8 7 7 8 9 10 8 8 13 18 18 19 19 18 18 18 18
15 13 14 15 14 16 12 11 12 8 8 8 9 11 9 7 8 8 5 6 5 5 7 6 4 6 7 9 10 10 10 8 7 7 12 18 18 18 18 18 17 17 18
15 14 16 14 14 13 13 9 10 10 8 9 9 10 9 8 8 8 7 6 5 5 6 8 7 6 7 8 8 9 10 10 11 7 6 18 18 17 17 17 17 17 17
17 15 17 17 15 15 12 13 10 10 10 9 8 8 11 8 7 7 7 7 6 5 5 6 7 7 6 7 8 8 9 9 9 8 6 8 18 18 18 17 17 17 17
17 18 15 17 18 17 16 13 11 9 10 9 9 11 11 10 9 8 8 7 6 6 8 7 8 7 6 7 8 8 7 9 8 8 7 6 7 14 16 16 17 17 17
18 20 16 14 17 18 15 12 10 10 9 8 9 9 11 11 11 8 7 7 7 6 6 6 6 6 6 6 6 6 6 7 9 9 7 6 5 6 9 13 13 15 16
18 17 17 16 20 18 16 12 12 14 10 9 9 9 11 12 11 8 7 7 8 5 5 5 5 6 6 6 6 5 5 5 6 6 7 7 6 6 4 6 7 10 14
19 20 19 15 18 19 13 12 10 10 10 9 8 9 12 10 11 8 7 8 7 6 6 5 7 5 5 5 6 6 4 4 4 4 5 5 5 5 6 6 5 4 9
17 19 20 18 18 15 13 12 11 10 9 9 9 12 13 11 11 9 7 8 7 6 7 9 7 7 5 5 4 4 3 4 4 3 3 3 5 5 7 6 5 4 5
17 19 20 17 16 14 12 11 11 10 9 8 9 11 11 11 10 9 8 7 7 6 7 7 7 6 5 3 1 1 4 4 4 2 2 3 5 5 5 6 6 7 6
18 19 19 17 18 13 14 11 10 10 8 7 9 9 9 11 9 9 9 8 8 6 6 6 4 5 4 4 6 3 2 3 1 3 3 2 4 4 5 6 6 6 7
19 17 18 17 18 12 13 14 18 14 13 8 9 9 9 10 10 9 9 8 8 6 7 6 6 4 4 5 3 6 6 4 3 1 4 3 2 4 4 5 6 6 6
18 20 18 19 18 17 15 13 14 15 10 10 9 13 11 10 10 9 9 8 8 6 7 7 7 7 5 5 4 3 4 3 3 2 2 3 4 4 5 4 5 5 6
19 19 19 21 20 18 16 10 15 18 16 13 12 10 9 8 8 8 9 8 8 8 7 7 7 7 6 6 4 4 4 3 3 2 2 5 4 2 4 2 2 4 4
Wind_Direction
139 142 154 154 149 148 143 134 121 119 111 104 113 108 103 99 95 93 89 88 92 88 85 81 79 74 73 67 68 70 70 74 78 78 71 53 62 57 50 33 56 60 55
145 147 155 161 153 147 139 124 122 117 112 120 115 113 107 103 98 92 90 93 90 85 83 83 78 77 72 71 66 70 71 71 70 72 91 70 52 66 62 54 42 58 58
145 145 151 151 148 142 129 127 123 122 124 121 119 113 109 105 100 96 94 89 86 84 83 87 83 79 74 74 74 73 66 53 20 27 67 54 60 60 63 58 52 59 52
146 146 148 145 141 132 132 130 127 130 128 125 120 115 108 105 107 100 97 92 88 86 89 89 85 80 76 75 76 80 75 54 6 1 61 54 54 55 53 56 55 45 52
141 154 131 141 135 134 135 128 136 134 130 125 118 110 114 112 106 107 98 93 92 91 93 91 86 81 78 78 78 84 87 71 0 72 68 52 52 55 57 57 54 50 46
139 129 133 137 133 137 130 140 140 136 133 126 124 120 119 113 113 106 106 99 98 97 96 94 88 82 85 81 79 66 35 329 69 70 86 79 65 70 72 65 64 60 56
130 134 138 136 134 131 139 142 141 137 128 125 122 123 120 118 111 110 105 105 103 101 99 96 90 88 88 83 76 42 17 63 69 69 58 61 66 62 62 63 61 55 54
141 139 137 133 129 138 143 143 144 142 133 130 130 128 118 116 113 114 111 108 106 102 100 96 95 96 89 81 66 39 16 105 91 64 57 52 60 59 53 54 56 53 46
146 139 135 134 135 139 141 147 146 142 130 132 130 126 115 116 114 112 112 111 105 103 102 100 97 95 87 78 60 35 40 66 71 61 60 56 56 59 56 52 52 51 52
137 143 151 149 151 149 149 147 138 131 131 127 112 110 109 101 101 104 105 106 103 103 104 104 98 94 87 75 47 17 346 99 95 78 66 56 64 62 58 54 52 49 46
153 164 161 153 154 152 145 130 121 122 116 109 109 111 147 129 128 123 79 102 104 102 103 103 103 102 92 70 35 2 54 69 83 74 70 69 67 62 59 56 56 54 49
174 173 156 160 157 151 130 140 135 133 149 147 145 163 136 125 106 101 84 92 102 100 102 107 117 139 133 115 111 92 79 78 71 72 52 59 65 60 57 53 50 48 46
170 166 163 162 161 146 141 152 142 175 162 152 157 158 143 118 128 124 130 126 126 144 124 127 140 81 87 92 85 81 80 82 77 62 41 51 58 58 53 50 46 44 41
179 170 166 161 163 153 163 155 171 165 155 160 165 153 141 142 144 144 134 132 131 121 117 99 86 89 86 89 88 89 84 83 85 80 49 51 53 50 48 45 42 41 38
178 174 176 161 166 161 164 163 158 156 167 162 159 158 152 149 147 140 137 131 121 125 123 119 109 95 81 83 85 88 91 92 96 92 71 55 52 48 45 44 43 40 35
180 175 176 174 170 165 168 163 161 152 163 150 157 162 158 146 141 136 132 128 124 114 119 116 116 109 101 92 83 79 83 83 86 93 103 76 59 48 43 40 39 37 35
184 170 176 176 174 170 170 166 163 171 145 158 159 158 156 147 143 144 128 130 126 121 116 112 109 107 107 105 101 95 88 82 74 77 70 47 91 68 45 38 36 33 30
179 176 177 175 175 174 166 171 165 162 154 156 152 156 153 149 148 136 135 126 132 128 126 124 127 121 118 116 111 98 98 99 98 89 75 63 45 31 71 43 38 33 27
179 183 180 176 176 176 171 169 166 163 156 150 152 152 155 149 148 143 135 132 129 120 113 125 122 124 121 111 113 103 99 97 96 87 78 73 58 47 29 52 40 51 28
188 180 186 173 181 174 168 163 161 166 156 148 153 151 152 154 150 137 139 134 127 123 116 113 111 103 111 121 114 107 102 105 101 81 90 79 57 48 39 25 15 42 49
187 181 188 182 193 174 168 167 163 169 156 152 148 148 157 151 148 144 137 133 131 124 112 113 111 108 85 110 128 121 127 131 125 111 95 73 53 36 32 16 22 13 6
185 182 186 188 181 179 169 166 160 156 149 146 139 151 153 150 150 141 141 132 118 122 122 120 113 107 87 42 342 184 162 161 182 115 102 54 36 38 22 13 13 19 11
187 184 184 175 154 189 170 158 151 137 144 142 145 145 151 149 149 139 131 131 125 119 112 106 118 116 120 68 46 348 205 53 332 143 164 77 8 35 25 358 16 15 10
191 183 180 177 165 166 182 166 157 152 150 161 153 142 145 148 143 137 132 128 119 116 114 112 99 98 107 111 88 56 56 29 13 145 155 132 20 41 25 355 6 10 18
192 186 172 170 166 155 179 177 156 153 151 148 147 146 146 141 141 140 132 128 123 109 108 110 105 97 82 94 82 116 72 74 52 12 317 352 352 22 14 352 350 9 7
182 185 168 165 168 163 141 192 183 159 146 149 151 148 145 141 140 139 131 125 120 119 112 105 102 97 96 95 95 72 57 31 37 356 322 343 330 15 337 318 11 4 353